This is the latest recevied weather packets stored in our database for station/object K4AMF. If no packets are shown the sender has not sent any weather packets the latest 10 day(s).
| Time | Temp. | Humidity | Pressure | Rain* | Wind** | Luminosity | Snow |
|---|---|---|---|---|---|---|---|
| 1777918713 | 25° C | 45% | 1018.4 hPa | 0 mm | - | 678 W/m² | - |
| 1777918411 | 24.44° C | 45% | 1018.3 hPa | 0 mm | - | 691 W/m² | - |
| 1777918110 | 25° C | 42% | 1018.2 hPa | 0 mm | - | 721 W/m² | - |
| 1777917808 | 25.56° C | 40% | 1018.5 hPa | 0 mm | - | 726 W/m² | - |
| 1777917506 | 25° C | 43% | 1018.3 hPa | 0 mm | - | 722 W/m² | - |
| 1777917202 | 25.56° C | 43% | 1018.4 hPa | 0 mm | - | 724 W/m² | - |
| 1777916901 | 26.11° C | 42% | 1018.4 hPa | 0 mm | - | 743 W/m² | - |
| 1777916598 | 26.11° C | 44% | 1018.6 hPa | 0 mm | - | 733 W/m² | - |
| 1777916294 | 25.56° C | 42% | 1018.6 hPa | 0 mm | - | 727 W/m² | - |
| 1777915991 | 25.56° C | 42% | 1018.7 hPa | 0 mm | - | 729 W/m² | - |
| 1777915688 | 25.56° C | 41% | 1018.7 hPa | 0 mm | - | 727 W/m² | - |
| 1777915385 | 25° C | 41% | 1018.8 hPa | 0 mm | - | 733 W/m² | - |
| 1777915080 | 25° C | 41% | 1018.8 hPa | 0 mm | - | 736 W/m² | - |
| 1777914778 | 25° C | 40% | 1018.8 hPa | 0 mm | - | 732 W/m² | - |
| 1777914475 | 25° C | 41% | 1019 hPa | 0 mm | - | 206 W/m² | - |
| 1777914172 | 24.44° C | 41% | 1018.9 hPa | 0 mm | - | 771 W/m² | - |
| 1777913868 | 25° C | 40% | 1019.3 hPa | 0 mm | - | 777 W/m² | - |
| 1777913565 | 25° C | 41% | 1019.1 hPa | 0 mm | - | 759 W/m² | - |
| 1777913261 | 25° C | 42% | 1019.4 hPa | 0 mm | - | 742 W/m² | - |
| 1777912959 | 25° C | 42% | 1019 hPa | 0 mm | - | 714 W/m² | - |
| 1777912654 | 25° C | 42% | 1019.2 hPa | 0 mm | - | 721 W/m² | - |
| 1777912350 | 24.44° C | 43% | 1019.2 hPa | 0 mm | - | 730 W/m² | - |
| 1777912046 | 23.89° C | 41% | 1019.3 hPa | 0 mm | - | 736 W/m² | - |
| 1777911742 | 24.44° C | 42% | 1019.2 hPa | 0 mm | - | 738 W/m² | - |
| 1777911440 | 24.44° C | 42% | 1019.3 hPa | 0 mm | - | 740 W/m² | - |
* Rain latest hour (hover to see other rain measurements)
** Current wind speed in m/s (hover to see current wind gust speed)